ROMMA est une association bénévole à but non lucratif. Votre soutien est indispensable : ADHERER à ROMMA ou FAIRE un DON

Voiron - (38, Isère)

Voironnais (300 m)   Longitude: 05° 35' E   Latitude: 45° 23' N Station partenaire n°109
 

Détail journalier du     <<     >>

Température Precipitation Humidité Pression Vent Dir Rafale Dir. rafale Ensol.
Heure (°C) (mm) (%) (hPa) (km/h) (km/h) (min)
01:00 8.7069102305NO0
02:00 8.4069102303NO0
03:00 8.207010232NO5NO0
04:00 7.4072102302NO0
05:00 6.90741022000
06:00 6.40761022000
07:00 5.8077102103NO0
08:00 5.607810211NO3NO0
09:00 9.406610211NO5NO60
10:00 12.305710212SO6SO60
11:00 13.305310202S11SSO60
12:00 14.305010205S11S60
13:00 15.904710206S15SSE60
14:00 17.104410196S16S60
15:00 19.103910185SSO15ONO60
16:00 20.303610175OSO15OSO60
17:00 20.603710165SO15NO60
18:00 20.803610166ONO19ONO60
19:00 20.903410166ONO19ONO60
20:00 18.703810163SO15OSO30
21:00 16.104810172SE10ESE0
22:00 13.905510172OSO5SSO0
23:00 12.5060101705OSO0
minuit 11.3064101703OSO0

Graphique du 31-03-2019

 

Serveur OMMA